Regional Weather Roundup
Issued by NWS

Home | Current Version | Previous Version | Graphics & Text | Print | Product List | Glossary On
Versions: 1 2 3 4 5 6 7 8 9 10 11 12 13 14 15 16 17 18 19 20 21 22 23 24 25 26 27 28 29 30 31 32 33 34 35 36 37 38 39 40 41 42 43 44 45 46 47 48 49 50
000
ASUS43 KMPX 201110
RWRMN
WEATHER ROUNDUP FOR MINNESOTA
NATIONAL WEATHER SERVICE TWIN CITIES/CHANHASSEN MN
600 AM CDT MON OCT 20 2014


NOTE: "FAIR" INDICATES FEW OR NO CLOUDS BELOW 12,000 FEET WITH NO
SIGNIFICANT WEATHER AND/OR OBSTRUCTIONS TO VISIBILITY. N/A MEANS
CURRENT SKY AND/OR WEATHER CONDITIONS ARE NOT AVAILABLE.

MNZ060>063-068>070-201200-
   Twin Cities Metro

CITY           SKY/WX    TMP DP  RH WIND       PRES   REMARKS
TWIN CITIES    CLEAR     47  41  80 W3        29.94R
ST PAUL        CLEAR     44  42  93 CALM      29.94R
CRYSTAL        CLEAR     49  41  74 NW8       29.93R
BLAINE         CLEAR     46  45  93 W8        29.94R
LAKEVILLE      CLEAR     43  39  87 W6        29.94R
EDEN PRAIRIE   CLEAR     47  42  83 NW7       29.94R
SOUTH ST PAUL  CLEAR     44  41  89 CALM      29.93R
LAKE ELMO      FAIR      41  37  87 NW6       29.93S
$$
MNZ001>005-007-008-013>017-022>024-027-028-201200-
   Northwest Minnesota

CITY           SKY/WX    TMP DP  RH WIND       PRES   REMARKS
BEMIDJI        CLEAR     32  32  98 W8        29.97R WCI  25
HALLOCK        CLEAR     37  36  93 N7        30.03R
ROSEAU         CLEAR     37  34  87 NW5       30.00R
WARROAD        CLEAR     39  36  87 NW7       30.00R
THIEF RVR FALL CLEAR     39  36  87 N6        30.01R
CROOKSTON      CLEAR     36  34  93 N6        30.03R
FOSSTON        CLEAR     34  32  93 CALM      30.01R
DETROIT LAKES  CLEAR     41  37  87 NW5       30.00S
MOORHEAD       CLEAR     39  37  93 N3        30.02R
PARK RAPIDS    CLEAR     38  36  92 CALM      29.97R
MAHNOMEN       FAIR      36  34  93 N3        30.00R
$$
MNZ006-009>011-018-025>026-201200-
   North Central Minnesota

CITY           SKY/WX    TMP DP  RH WIND       PRES   REMARKS
BAUDETTE       CLOUDY    41  39  93 W6        29.97R
FLAG ISLAND    CLOUDY    43  39  87 NW15      29.97R
INTL FALLS     CLOUDY    41  40  96 NW8       29.93R
WASKISH        MOCLDY    43  41  93 NW6       29.96R
BIG FORK       CLEAR     39  37  93 CALM      29.94R
LONGVILLE        N/A     39  37  93 CALM      29.94S FOG
GRAND RAPIDS   CLEAR     43  37  81 NW7       29.92S
CRANE LAKE     CLOUDY    46  43  87 NW3       29.91R
ORR            CLOUDY    45  39  81 NW5       29.89R
COOK           CLOUDY    39  39 100 NW3       29.91R
WALKER         FAIR      38  37  94 W5        29.96R
$$
MNZ012-019>021-037-201200-
   Northeast Minnesota

CITY           SKY/WX    TMP DP  RH WIND       PRES   REMARKS
DULUTH         CLEAR     45  40  82 NW8       29.88R
ELY            CLOUDY    45  39  81 NW5       29.88R
HIBBING        MOCLDY    43  39  86 NW5       29.90S
EVELETH        MOCLDY    43  41  93 W5        29.90R
DULUTH HARBOR  CLEAR     48  43  81 W3        29.90R
TWO HARBORS    CLEAR     46  34  61 NW3       29.85S
SILVER BAY     CLEAR     46  39  76 NW3       29.85R
GRAND MARAIS     N/A     49  42  77 CALM      29.84R
G MARAIS ARPRT CLOUDY    43  37  81 NW6       29.84R
$$
MNZ029>031-032-039>041-046>048-054>057-064-201200-
   West Central Minnesota

CITY           SKY/WX    TMP DP  RH WIND       PRES   REMARKS
FERGUS FALLS   CLEAR     39  34  81 N5        30.01S
WHEATON        CLEAR     37  36  93 W3        30.03S
MORRIS         CLEAR     37  36  93 NW5       29.99R
ALEXANDRIA     CLEAR     42  38  85 NW7       29.99R
ELBOW LAKE     FAIR      41  37  85 N6        29.99S
WADENA         CLEAR     39  37  93 NW6       29.97S
GLENWOOD       CLEAR     43  37  81 NW5       29.99R
APPLETON       CLEAR     39  36  87 W6        30.00R
BENSON         CLEAR     36  34  93 N7        29.99R
ORTONVILLE     CLEAR     46  37  71 NW7       30.01R
MADISON        CLEAR     46  39  76 NW8       30.01R
WILLMAR        FAIR      37  34  87 NW5       30.00R
$$
MNZ033>034-036-042>043-049>051-058-059-201200-
   Central Minnesota

CITY           SKY/WX    TMP DP  RH WIND       PRES   REMARKS
ST CLOUD       CLEAR     47  40  76 NW5       29.95R
SAUK CENTRE    FAIR      40  38  92 W3        29.97R
PAYNESVILLE    CLEAR     37  36  95 SW7       29.98R
AITKIN         CLEAR     39  34  81 CALM      29.92S
PINE RIVER     CLEAR     34  34 100 CALM      29.99R
BRAINERD       CLEAR     41  39  93 CALM      29.96R
STAPLES        CLEAR     37  36  93 W5        29.97R
LONG PRAIRIE   FAIR      43  37  81 CALM      29.97R
LITTLE FALLS   CLEAR     37  36  93 CALM      29.96R
LITCHFIELD     CLEAR     48  43  81 NW6       29.97R
BUFFALO        CLEAR     44  39  83 N5        29.97R
MAPLE LAKE     CLEAR     48  43  82 W6        29.96R
$$
MNZ037-044-045-052-053-201200-
   East Central Minnesota

CITY           SKY/WX    TMP DP  RH WIND       PRES   REMARKS
PRINCETON      CLEAR     43  39  87 CALM      29.95R
MORA           CLEAR     43  39  87 NW3       29.94S
CAMBRIDGE      FAIR      45  36  70 CALM      29.92R
RUSH CITY      PTCLDY    45  41  86 NW7       29.93R
MOOSE LAKE     CLEAR     43  37  81 NW6       29.90R
HINCKLEY       FAIR      45  41  87 NW5       29.92R
CLOQUET        FAIR      43  39  87 W7        29.90R
MCGREGOR       CLEAR     43  39  87 NW3       29.93R
$$
MNZ071>073-080-081-089-090-097-098-201200-
   Southwest Minnesota

CITY           SKY/WX    TMP DP  RH WIND       PRES   REMARKS
MONTEVIDEO     CLEAR     43  37  81 NW6       30.00R
GRANITE FALLS  CLEAR     37  33  87 W7        30.01R
CANBY          CLEAR     44  38  79 W7        30.02R
MARSHALL       CLEAR     43  34  70 W12       29.99S
REDWOOD FALLS  CLEAR     42  37  82 W8        29.99R
OLIVIA         CLEAR     39  36  87 NW5       29.98R
PIPESTONE      CLEAR     43  37  81 NW7       30.03R
WINDOM         CLEAR     39  36  87 W6        30.00S
WORTHINGTON    CLEAR     39  36  87 W5        30.03R
JACKSON        CLEAR     41  36  81 W3        30.00S
TRACY          CLEAR     47  39  73 W8        30.01R
SLAYTON        CLEAR     42  37  82 W7        30.02R
$$
MNZ065>067-074>077-082>085-091>093-201200-
   South Central Minnesota

CITY           SKY/WX    TMP DP  RH WIND       PRES   REMARKS
MANKATO        CLEAR     46  37  71 W7        29.97R
NEW ULM        CLEAR     41  37  87 W7        29.98R
ST JAMES       CLEAR     45  37  76 W7        30.00R
FAIRMONT       CLEAR     45  36  70 NW7       29.98R
GLENCOE        CLEAR     47  42  81 W8        29.95S
FARIBAULT      CLEAR     43  39  87 CALM      29.95R
OWATONNA       CLEAR     39  37  93 W3        29.95R
WASECA         CLEAR     37  34  87 W3        29.98R
ALBERT LEA     CLEAR     45  41  87 CALM      29.96R
$$
MNZ078>079-086>088-094>096-201200-
   Southeast Minnesota

CITY           SKY/WX    TMP DP  RH WIND       PRES   REMARKS
ROCHESTER      CLEAR     42  39  89 W6        29.94R
RED WING       CLEAR     43  41  93 W5        29.92R
STANTON        CLEAR     42  39  89 SW3       29.93R
DODGE CENTER   PTCLDY    46  43  87 W7        29.94R
WINONA         CLEAR     45  41  87 NW6       29.92R
AUSTIN         CLEAR     45  39  81 NW3       29.94S
PRESTON        CLEAR     42  39  88 W6        29.94R
$$
ABBREVIATIONS USED IN REMARKS
   TC - TEMPERATURES IN CELSIUS
  WCI - WIND CHILL INDEX
   HX - HEAT INDEX
  VSB - VISIBILITY
$$



USA.gov is the U.S. government's official web portal to all federal, state and local government web resources and services.